Weather History for KBHK - December, 2013

Change the Weather History Date:

Saturday, December 21, 2013

  Actual Average Record
Temperature  
Mean Temperature 2 °F -  
Max Temperature 9 °F 36 °F 46 °F (2006)
Min Temperature -5 °F -24 °F -18 °F (2008)
Degree Days  
Heating Degree Days 63    
Moisture  
Dew Point 1 °F    
Average Humidity 80    
Maximum Humidity 87    
Minimum Humidity 76    
Precipitation  
Precipitation 0.00 in - - ()
Sea Level Pressure  
Sea Level Pressure 29.88 in    
Wind  
Wind Speed 10 mph (ESE)    
Max Wind Speed 18 mph    
Max Gust Speed -    
Visibility 4 miles    
Events Snow    
Averages and records for this station are not official NWS values.
T = Trace of Precipitation, MM = Missing Value Source: NWS Daily Summary

Daily Weather History Graph

Daily Weather History Graph

Search for Another Location

Airport or City:

Trip Planner

Search our weather history database for the weather conditions in past years. The results will help you decide how hot, cold, wet, or windy it might be!

Date:

Astronomy

Dec. 21, 2013 Rise Set
Actual Time 7:37 AM MST 4:13 PM MST
Civil Twilight 7:02 AM MST 4:48 PM MST
Nautical Twilight 6:24 AM MST 5:26 PM MST
Astronomical Twilight 5:47 AM MST 6:03 PM MST
Moon 8:45 PM MST (12/21) 9:52 AM MST (12/21)
Length of Visible Light 9h 45m
Length of Day
8h 35m
Waning Gibbous, 84% of the Moon is Illuminated
Dec 21
Waning Gibbous
Dec 25
Last Quarter
Jan 1
New
Jan 7
First Quarter
Jan 15
Full

Hourly Weather History & Observations

Time (MST) Temp. Windchill Dew Point Humidity Pressure Visibility Wind Dir Wind Speed Gust Speed Precip Events Conditions
12:51 AM -5.1 °F -13.6 °F -8.0 °F 87% 29.80 in 10.0 mi ESE 3.5 mph - N/A   Clear
1:51 AM -2.0 °F -12.2 °F -6.0 °F 83% 29.79 in 10.0 mi SE 4.6 mph - N/A   Clear
2:51 AM 6.1 °F -5.6 °F 1.0 °F 80% 29.78 in 10.0 mi ESE 6.9 mph - N/A   Overcast
3:51 AM 7.0 °F -5.7 °F 1.9 °F 80% 29.79 in 10.0 mi ESE 8.1 mph - N/A   Overcast
4:51 AM 7.0 °F -5.7 °F 1.9 °F 80% 29.82 in 10.0 mi SE 8.1 mph - N/A   Overcast
5:51 AM 7.0 °F -7.5 °F 3.0 °F 84% 29.83 in 3.0 mi ESE 10.4 mph - 0.00 in Snow Light Snow
6:15 AM 9.0 °F -5.1 °F 3.9 °F 80% 29.68 in 2.5 mi East 10.4 mph - 0.00 in Snow Light Snow
6:37 AM 8.1 °F -6.2 °F 3.0 °F 80% 29.69 in 4.0 mi East 10.4 mph - 0.00 in Snow Light Snow
6:42 AM 8.1 °F -7.0 °F 3.0 °F 80% 29.69 in 5.0 mi East 11.5 mph - 0.00 in Snow Light Snow
6:51 AM 8.1 °F -7.0 °F 3.0 °F 80% 29.86 in 8.0 mi ESE 11.5 mph - 0.00 in   Mostly Cloudy
7:51 AM 7.0 °F -6.6 °F 1.9 °F 80% 29.89 in 5.0 mi East 9.2 mph - 0.00 in Snow Light Snow
8:11 AM 6.1 °F -10.2 °F 1.0 °F 80% 29.73 in 2.0 mi East 12.7 mph - 0.00 in Snow Light Snow
8:39 AM 7.0 °F -9.8 °F 1.0 °F 77% 29.75 in 4.0 mi East 13.8 mph - 0.00 in Snow Light Snow
8:51 AM 6.1 °F -10.2 °F 1.0 °F 80% 29.94 in 2.5 mi East 12.7 mph - 0.00 in Snow Light Snow
9:01 AM 6.1 °F -10.9 °F 1.0 °F 80% 29.76 in 3.0 mi East 13.8 mph - 0.00 in Snow Light Snow
9:07 AM 6.1 °F -10.9 °F -0.0 °F 76% 29.76 in 2.5 mi East 13.8 mph - 0.00 in Snow Light Snow
9:26 AM 6.1 °F -11.6 °F -0.0 °F 76% 29.77 in 4.0 mi East 15.0 mph - 0.00 in Snow Light Snow
9:51 AM 6.1 °F -12.2 °F 1.0 °F 80% 29.98 in 5.0 mi East 16.1 mph - 0.00 in Snow Light Snow
10:43 AM 8.1 °F -9.0 °F 1.9 °F 76% 29.80 in 2.0 mi ESE 15.0 mph - 0.00 in Snow Light Snow
10:51 AM 8.1 °F -10.2 °F 1.9 °F 76% 29.99 in 2.0 mi ESE 17.3 mph - 0.00 in Snow Light Snow
10:55 AM 8.1 °F -10.2 °F 1.9 °F 76% 29.80 in 1.8 mi ESE 17.3 mph - 0.00 in Snow Light Snow
11:51 AM 7.0 °F -9.8 °F 1.9 °F 80% 29.98 in 1.2 mi East 13.8 mph - 0.00 in Snow Light Snow
11:59 AM 7.0 °F -11.0 °F 1.9 °F 80% 29.78 in 2.0 mi ESE 16.1 mph - 0.00 in Snow Light Snow
12:24 PM 7.0 °F -9.8 °F 1.9 °F 80% 29.78 in 3.0 mi ESE 13.8 mph - 0.00 in Snow Light Snow
12:51 PM 7.0 °F -9.8 °F 1.9 °F 80% 29.98 in 6.0 mi ESE 13.8 mph - 0.00 in Snow Light Snow
1:11 PM 8.1 °F -10.7 °F 1.9 °F 76% 29.78 in 2.0 mi ESE 18.4 mph - 0.00 in Snow Light Snow
1:16 PM 8.1 °F -10.2 °F 1.9 °F 76% 29.78 in 1.5 mi ESE 17.3 mph - 0.00 in Snow Light Snow
1:21 PM 8.1 °F -9.6 °F 1.9 °F 76% 29.78 in 1.5 mi ESE 16.1 mph - 0.00 in Snow Light Snow
1:51 PM 8.1 °F -9.6 °F 1.9 °F 76% 29.98 in 1.8 mi ESE 16.1 mph - 0.00 in Snow Light Snow
2:05 PM 8.1 °F -9.6 °F 1.9 °F 76% 29.79 in 2.0 mi ESE 16.1 mph - 0.00 in Snow Light Snow
2:21 PM 8.1 °F -9.0 °F 1.9 °F 76% 29.79 in 1.5 mi ESE 15.0 mph - 0.00 in Snow Light Snow
2:30 PM 8.1 °F -9.6 °F 1.9 °F 76% 29.79 in 1.5 mi ESE 16.1 mph - 0.00 in Snow Light Snow
2:51 PM 8.1 °F -9.0 °F 1.9 °F 76% 29.96 in 1.2 mi ESE 15.0 mph - 0.00 in Snow Light Snow
2:57 PM 8.1 °F -9.0 °F 1.9 °F 76% 29.80 in 1.2 mi ESE 15.0 mph - 0.00 in Snow Light Snow
3:14 PM 8.1 °F -8.4 °F 1.9 °F 76% 29.81 in 1.5 mi ESE 13.8 mph - 0.00 in Snow Light Snow
3:24 PM 8.1 °F -7.7 °F 1.9 °F 76% 29.81 in 0.8 mi ESE 12.7 mph - 0.00 in Snow Light Snow
3:44 PM 8.1 °F -6.2 °F 3.0 °F 80% 29.83 in 1.0 mi ESE 10.4 mph - 0.00 in Snow Light Snow
3:51 PM 8.1 °F -7.0 °F 3.0 °F 80% 29.99 in 0.8 mi ESE 11.5 mph - 0.00 in Snow Light Snow
3:55 PM 8.1 °F -7.0 °F 3.0 °F 80% 29.83 in 1.0 mi ESE 11.5 mph - 0.00 in Snow Light Snow
4:02 PM 9.0 °F -4.2 °F 3.0 °F 77% 29.83 in 1.2 mi ESE 9.2 mph - 0.00 in Snow Light Snow
4:17 PM 8.1 °F -6.2 °F 3.0 °F 80% 29.84 in 2.0 mi ESE 10.4 mph - 0.00 in Snow Light Snow
4:31 PM 8.1 °F -5.3 °F 3.9 °F 83% 29.84 in 4.0 mi ESE 9.2 mph - 0.00 in Snow Light Snow
4:41 PM 9.0 °F -3.2 °F 3.9 °F 80% 29.85 in 4.0 mi ESE 8.1 mph - 0.00 in Snow Light Snow
4:51 PM 9.0 °F -3.2 °F 3.9 °F 80% 30.02 in 4.0 mi ESE 8.1 mph - 0.00 in Snow Light Snow
5:32 PM 8.1 °F -6.2 °F 3.9 °F 83% 29.86 in 1.8 mi ESE 10.4 mph - 0.00 in Snow Light Snow
5:39 PM 8.1 °F -7.0 °F 3.0 °F 80% 29.87 in 3.0 mi ESE 11.5 mph - 0.00 in Snow Light Snow
5:45 PM 8.1 °F -6.2 °F 3.0 °F 80% 29.87 in 5.0 mi ESE 10.4 mph - 0.00 in Snow Light Snow
5:51 PM 8.1 °F -5.3 °F 3.0 °F 80% 30.04 in 5.0 mi ESE 9.2 mph - 0.00 in Snow Light Snow
6:06 PM 8.1 °F -6.2 °F 3.0 °F 80% 29.87 in 2.5 mi ESE 10.4 mph - 0.00 in Snow Light Snow
6:29 PM 7.0 °F -5.7 °F 3.0 °F 84% 29.87 in 1.8 mi East 8.1 mph - 0.00 in Snow Light Snow
6:36 PM 6.1 °F -6.8 °F 1.9 °F 83% 29.88 in 2.0 mi ESE 8.1 mph - 0.00 in Snow Light Snow
6:44 PM 5.0 °F -6.9 °F 1.0 °F 84% 29.88 in 5.0 mi ESE 6.9 mph - 0.00 in Snow Light Snow
6:51 PM 5.0 °F -5.6 °F 1.0 °F 84% 30.06 in 7.0 mi ESE 5.8 mph - 0.00 in   Overcast
7:18 PM 7.0 °F 0.1 °F 1.9 °F 80% 29.90 in 6.0 mi East 3.5 mph - 0.00 in Snow Light Snow
7:41 PM 7.0 °F - 1.9 °F 80% 29.91 in 2.5 mi Calm Calm - 0.00 in Snow Light Snow
7:51 PM 6.1 °F -0.9 °F 1.0 °F 80% 30.09 in 2.5 mi NNE 3.5 mph - 0.00 in Snow Light Snow
7:56 PM 6.1 °F -0.9 °F 1.0 °F 80% 29.91 in 3.0 mi NE 3.5 mph - 0.00 in Snow Light Snow
8:51 PM 7.0 °F -7.5 °F 1.9 °F 80% 30.11 in 7.0 mi WNW 10.4 mph - 0.00 in   Overcast
9:51 PM 5.0 °F -10.8 °F 1.0 °F 84% 30.13 in 8.0 mi WNW 11.5 mph - 0.00 in Snow Light Snow
10:02 PM 5.0 °F -10.0 °F 1.0 °F 84% 29.95 in 10.0 mi WNW 10.4 mph - 0.00 in   Overcast
10:05 PM 5.0 °F -12.3 °F 1.0 °F 84% 29.95 in 9.0 mi WNW 13.8 mph - 0.00 in   Overcast
10:23 PM 5.0 °F -11.6 °F 1.0 °F 84% 29.96 in 6.0 mi West 12.7 mph - 0.00 in Snow Light Snow
10:35 PM 3.9 °F -12.2 °F -0.0 °F 84% 29.95 in 5.0 mi WNW 11.5 mph - 0.00 in Snow Light Snow
10:48 PM 3.2 °F -13.1 °F -0.4 °F 85% 29.96 in 8.0 mi WNW 11.5 mph - 0.00 in   Overcast
10:51 PM 3.0 °F -14.1 °F -0.9 °F 84% 30.14 in 7.0 mi WNW 12.7 mph - 0.00 in   Overcast
10:58 PM 3.0 °F -14.8 °F -0.9 °F 84% 29.96 in 5.0 mi WNW 13.8 mph - 0.00 in Snow Light Snow
11:03 PM 3.0 °F -15.5 °F -0.9 °F 84% 29.96 in 6.0 mi WNW 15.0 mph - 0.00 in Snow Light Snow
11:35 PM 1.9 °F -18.7 °F -2.0 °F 83% 29.97 in 2.0 mi WNW 18.4 mph - 0.00 in   Overcast
11:51 PM 1.9 °F -16.9 °F -2.9 °F 80% 30.16 in 2.5 mi West 15.0 mph - 0.00 in   Overcast
11:59 PM 1.0 °F -18.0 °F -2.9 °F 83% 29.98 in 3.0 mi West 15.0 mph - 0.00 in   Overcast